Regional Weather Roundup
Issued by NWS Charleston, SC

Current Version | Previous Version | Graphics & Text | Print | Product List | Glossary On
Versions: 1 2 3 4 5 6 7 8 9 10 11 12 13 14 15 16 17 18 19 20 21 22 23 24 25 26 27 28 29 30 31 32 33 34 35 36 37 38 39 40 41 42 43 44 45 46 47 48 49 50
000 ASUS42 KCHS 301913 RWRCHS REGIONAL WEATHER ROUNDUP NATIONAL WEATHER SERVICE CHARLESTON SC 300 PM EDT FRI SEP 30 2016 NOTE: "FAIR" INDICATES FEW OR NO CLOUDS BELOW 12,000 FEET WITH NO SIGNIFICANT WEATHER AND/OR OBSTRUCTIONS TO VISIBILITY. NOT ALL STATIONS ARE QUALITY CONTROLLED. USE DATA WITH CAUTION... ESPECIALLY DEWPOINT OBSERVATIONS. SCZ027-030-031-034>040-042>050-302000- ...SOUTHEAST SOUTH CAROLINA... CITY SKY/WX TMP DP RH WIND PRES REMARKS N CHARLESTON MOSUNNY 87 61 41 SW9 29.98S WATERFRONT PRK N/A 86 66 51 VRB3 29.96F MOUNT PLEASANT FAIR 86 68 54 S9 29.98F JOHNS ISLAND FAIR 86 70 58 S10 29.98F HX 90 PINOPOLIS N/A 84 64 51 W5 29.92F MONCKS CORNER FAIR 84 57 39 S6 29.98S SUMMERVILLE NOT AVBL BEAUFORT MCAS SUNNY 88 60 38 VRB6 29.98F BEAUFORT ARPT FAIR 84 61 45 W6 29.98F HILTON HEAD IS SUNNY 88 61 40 W6 29.99F WALTERBORO CLEAR 86 55 35 W8 29.99F ALLENDALE FAIR 82 52 34 VRB5 29.98F ...SOUTHERN MIDLANDS AND PEE DEE... CITY SKY/WX TMP DP RH WIND PRES REMARKS GEORGETOWN FAIR 84 68 58 S12 29.98F KINGSTREE FAIR 88 55 33 S8 29.97F ORANGEBURG SUNNY 83 54 36 SW8 29.98F BARNWELL NOT AVBL AIKEN FAIR 79 46 31 SW12G17 30.02F MANNING FAIR 82 59 44 SW6 29.98S COLUMBIA MOSUNNY 84 47 27 SW12 29.96F SUMTER SUNNY 86 54 32 SW14 29.95F FLORENCE MOSUNNY 86 60 41 SW9 29.96F MYRTLE BEACH PTSUNNY 86 72 62 S14 29.98F HX 92 N MYRTLE BEACH MOSUNNY 83 76 79 S13 29.96F HX 91 $$ GAZ063-065-086>088-099>101-113>116-118-119-134>141-150-302000- ...SOUTHEAST GEORGIA... CITY SKY/WX TMP DP RH WIND PRES REMARKS SAVANNAH ARPT MOSUNNY 86 57 37 W8 29.98F HUNTER AAF SUNNY 86 67 52 W8 29.96F FORT STEWART SUNNY 85 57 37 W6 29.96F STATESBORO SUNNY 83 55 37 W9 30.00F SYLVANIA NOT AVBL CLAXTON FAIR 83 56 39 W5 30.00F ...CSRA...CENTRAL AND FAR SOUTHEAST GEORGIA... CITY SKY/WX TMP DP RH WIND PRES REMARKS THOMSON SUNNY 83 49 31 W7 30.03F AUGUSTA-BUSH SUNNY 81 48 31 S9 29.98F AUGUSTA-DANIEL SUNNY 82 45 27 SW13 29.99F SWAINSBORO FAIR 81 46 30 W5G17 30.01F VIDALIA SUNNY 82 54 36 SW8 30.01F EASTMAN FAIR 80 23 12 CALM 30.04F HAZLEHURST FAIR 83 51 32 N10 30.01F ALMA SUNNY 82 51 34 W8 30.01F WAYCROSS SUNNY 88 58 36 SW9G16 30.00F JESUP FAIR 88 63 42 W6 29.99F BAXLEY FAIR 82 55 39 W8 30.00F BRUNSWICK SUNNY 86 63 45 W6 30.00F SAINT SIMONS SUNNY 85 59 41 VRB3 29.98F $$ SCZ027-028-034-036>038-045-046-048>050-GAZ119-141-302000- ...LAKE AND SUPPLEMENTAL COASTAL OBSERVATIONS... STATION/POSITION TIME TEMP WIND PRES WAVE SWELL AIR SEA DIR/SP/G HT/PER HT/PER/DIR (UTC) (F) (DEG/KT/KT) (MB) (FT/S) (FT/S/D) WINYAH BAY NOT AVBL LAKE MURRAY 1820 79 210/ 5/ 10 1014.6 ACE BASIN NERRS 1745 84 250/ 2 1016.0 FORT PULASKI 1836 84 82 210/ 5/ 8 1015.8F SAPELO ISLAND 1800 86 CALM 1016.0 $$ ANZ835-935-AMZ111-154-330-350-352-354-370-450-454-472-302000- ...C-MAN AND BUOY OBSERVATIONS... STATION/POSITION TIME TEMP WIND PRES WAVE SWELL AIR SEA DIR/SP/G HT/PER HT/PER/DIR (UTC) (F) (DEG/KT/KT) (MB) (FT/S) (FT/S/D) BUOY 41004 1850 82 83 210/ 10/ 10 1015.1F 3/ 5 3/200/ 5 BUOY 41008 1850 78 83 240/ 6/ 8 1015.7F 2/10 2/ 70/10 FOLLY BEACH CMAN 1800 81 190/ 10/ 12 1015.8F CAPERS NEARSHORE 1808 80 82 210/ 10/ 14 1015.5F FRIPP NEARSHORE 1808 82 83 240/ 8/ 10 1016.0F STATION/POSITION TIME TEMP WIND PRES WAVE SWELL AIR SEA DIR/SP/G HT/PER HT/PER/DIR (UTC) (F) (DEG/KT/KT) (MB) (FT/S) (FT/S/D) 5E ST. MARYS GA 1801 85 N/A 2/10 FRYING PAN BUOY 1850 82 82 180/ 14/ 17 1015.3F 4/ 6 2/ 70/10 BUOY 41025 1850 80 78 140/ 6/ 6 1017.3F 4/10 3/ 30/10 CAPE LOOKOUT NC 1800 74 290/ 3/ 4 1016.9F BUOY 41002 1850 82 83 180/ 12/ 16 1017.7F 4/10 3/10 BUOY 41010 NOT AVBL ST AUGUSTINE FL 1900 81 84 130/ 8/ 9 1015.9F $$

USA.gov is the U.S. government's official web portal to all federal, state and local government web resources and services.